Location: Caltech
(34.1382°N, 118.1253°W)
Time: 06:39:31
(UTC-07:00)

CZ-2C R/B - Visible Passes

Search period start: 01 May 2016 00:00
Search period end: 11 May 2016 00:00
Orbit: 704 x 908 km, 98.2° (Epoch: 30 April)

Date Brightness Start Highest point End Pass type
(mag) Time Alt. Az. Time Alt. Az. Time Alt. Az.
01 May 5.7 00:42:15 12° NNE 00:42:15 12° NNE 00:42:50 10° NNE visible
01 May 5.5 02:23:18 13° NNW 02:23:18 13° NNW 02:23:49 10° NNW visible
02 May 5.3 01:58:09 17° NNW 01:58:09 17° NNW 01:59:20 10° NNW visible
03 May 5.3 01:33:00 20° N 01:33:00 20° N 01:34:32 10° N visible
04 May 5.4 01:07:52 18° NNE 01:07:52 18° NNE 01:09:26 10° N visible
05 May 5.6 00:42:43 14° NE 00:42:43 14° NE 00:43:53 10° NNE visible
05 May 5.3 02:23:46 15° NNW 02:23:46 15° NNW 02:24:44 10° NNW visible
06 May 5.1 01:58:38 21° NNW 01:58:38 21° NNW 02:00:16 10° NNW visible
07 May 5.1 01:33:29 24° N 01:33:29 24° N 01:35:30 10° N visible
08 May 5.2 01:08:22 21° NNE 01:08:22 21° NNE 01:10:26 10° N visible
08 May 5.5 02:49:25 11° NW 02:49:25 11° NW 02:49:40 10° NW visible
09 May 5.4 00:43:13 16° NE 00:43:13 16° NE 00:44:58 10° NNE visible
09 May 5.2 02:24:17 18° NW 02:24:17 18° NW 02:25:41 10° NNW visible
10 May 5.7 00:18:05 10° NE 00:18:05 10° NE 00:18:20 10° NE visible
10 May 4.9 01:59:08 24° NNW 01:59:08 24° NNW 02:01:14 10° NNW visible
